Wind_Speed
28 29 29 30 32 34 34 34 35 35 35 36 36 36 36 37 37 38 40 42 42 43 44 44 45 46 47 47 47 48 48 49 50 51 51 52 52 53 53 53 53 53 53 54 54 55 56 56 56 56 56 56 57 57 58 58 59 60 60 61 61 62 62 62 62 62 62 62 62 62 61 62 62 62 63 64 64 65 65 66 67 67 68 69 70 70
29 29 30 32 33 34 35 35 36 36 37 37 37 37 37 37 37 39 41 42 42 43 44 44 45 47 47 47 48 48 49 50 50 51 51 52 52 52 52 52 52 53 53 54 54 55 56 56 56 56 56 57 57 57 58 58 58 59 60 61 62 63 63 63 63 63 63 62 61 61 61 62 62 63 64 64 65 66 66 67 68 69 70 70 71 72
30 30 31 32 32 33 34 35 36 36 37 37 37 37 37 37 38 40 41 42 42 43 44 44 45 47 47 48 48 49 49 49 50 50 50 50 50 51 51 52 53 54 55 56 56 56 57 57 56 56 56 56 56 56 57 58 59 60 61 62 63 63 63 63 63 62 61 61 62 62 62 63 64 64 65 66 67 67 68 68 69 70 71 72 72 72
30 30 31 31 32 33 33 34 35 35 36 36 37 37 37 38 39 40 41 42 42 43 44 44 46 47 48 48 48 48 49 49 49 49 49 50 50 51 52 54 55 56 57 57 57 57 56 56 55 55 55 55 55 56 57 58 60 61 62 62 63 63 62 62 62 62 62 62 63 64 64 65 65 66 67 67 68 69 69 70 71 71 72 72 73 73
30 31 31 32 32 32 33 33 34 35 35 35 36 37 37 38 39 40 41 42 43 44 44 44 46 47 47 47 47 47 48 48 49 49 50 51 52 54 55 56 56 57 56 56 55 55 54 54 53 54 54 55 56 57 58 59 60 61 61 62 62 62 62 62 62 63 64 64 64 65 65 66 67 68 69 70 70 71 70 71 71 72 72 73 73 74
30 31 31 31 32 32 32 33 34 34 35 35 36 37 38 39 40 41 41 42 43 43 42 43 45 47 47 46 47 48 49 50 51 51 53 54 55 56 56 56 55 54 53 53 52 52 52 52 52 53 54 55 56 57 58 59 60 60 61 61 61 62 62 63 64 64 65 65 65 66 67 67 68 69 70 71 72 72 70 71 71 72 72 73 74 74
30 31 31 31 31 32 32 33 34 34 35 35 36 37 38 39 39 40 41 41 42 42 42 42 45 47 48 48 49 50 51 52 53 54 55 56 56 56 55 53 52 51 51 50 50 50 50 51 52 53 54 55 56 57 58 58 59 60 61 61 62 63 63 64 65 65 65 66 67 68 69 70 71 71 71 72 73 72 72 73 73 73 73 73 74 74
31 31 31 31 32 32 33 33 34 34 35 36 36 37 38 38 39 39 40 40 41 42 43 44 46 49 51 52 53 53 53 54 55 55 55 55 54 52 51 50 49 49 49 49 49 50 50 51 51 52 53 54 56 57 58 59 60 61 62 63 63 64 65 65 65 65 66 67 69 70 71 72 73 73 73 73 73 75 75 75 75 75 75 75 75 76
31 32 32 32 32 33 33 34 34 35 35 36 36 37 37 38 38 39 40 41 43 44 46 47 49 52 54 55 55 55 55 55 55 55 54 52 50 49 48 47 47 48 48 48 49 49 50 50 51 52 53 55 56 58 59 60 61 62 63 64 64 64 64 65 66 67 69 70 71 73 74 74 74 74 74 75 76 77 77 77 76 77 77 77 78 78
32 32 33 33 33 34 34 34 35 35 36 36 37 37 38 39 40 40 42 43 45 47 48 48 50 52 54 55 56 56 56 55 54 53 52 50 48 47 46 46 46 47 47 48 48 49 50 50 51 53 54 56 57 59 60 60 61 62 63 63 64 64 65 67 69 70 71 72 73 74 74 74 75 76 76 77 78 79 79 78 79 79 80 80 81 82
33 34 34 34 35 35 35 36 36 36 37 37 38 39 40 41 42 43 45 46 48 50 50 50 51 52 53 55 55 55 55 54 53 51 49 48 47 46 46 46 46 47 47 48 48 49 50 51 53 54 55 56 58 59 60 61 61 62 62 63 65 66 67 69 70 71 72 73 74 74 75 76 77 78 78 79 79 80 80 81 82 82 83 84 85 86
35 35 35 36 36 36 37 37 37 38 39 39 40 41 43 44 45 46 48 49 50 51 51 51 51 51 53 55 54 54 53 52 50 49 48 47 47 46 46 46 47 48 48 49 50 51 52 53 54 55 56 57 58 59 60 61 61 62 63 64 66 67 68 70 71 72 72 73 74 75 77 78 78 79 80 81 82 83 84 84 85 86 86 87 88 89
37 37 37 37 38 38 38 39 39 40 41 42 43 44 46 47 48 49 49 49 50 50 50 50 50 50 52 53 52 51 50 49 47 47 47 47 47 48 48 49 49 50 50 51 51 52 53 54 54 55 56 57 58 59 60 61 62 63 64 65 67 68 69 70 71 72 73 75 76 77 79 80 81 82 83 84 85 86 87 88 89 89 90 91 92 93
38 38 38 39 39 40 40 41 42 43 44 44 45 46 46 47 48 49 49 48 48 48 48 47 47 48 49 49 48 48 47 47 47 47 48 48 49 50 50 51 51 51 52 52 52 52 53 53 54 55 57 58 59 60 62 63 64 64 65 66 67 69 70 72 73 74 76 77 78 80 81 83 84 85 86 87 88 89 90 92 92 93 94 95 96 97
41 40 40 40 41 41 42 43 43 44 44 44 44 44 44 44 44 45 45 45 44 44 44 45 45 47 47 46 45 46 47 47 48 49 50 51 51 52 52 52 52 52 52 52 52 53 54 55 56 57 58 59 60 61 62 63 64 65 66 67 69 71 73 74 75 77 78 79 81 82 84 85 86 87 88 90 91 92 93 94 96 97 98 99 100 101
41 40 40 40 41 41 41 41 41 41 41 41 40 40 40 39 40 41 41 42 41 42 43 43 44 45 45 46 46 47 48 49 50 50 51 51 51 51 51 51 51 52 52 53 53 54 55 56 57 58 59 60 61 62 63 65 66 67 69 70 72 73 75 76 77 79 80 81 83 84 86 87 89 90 91 92 94 95 97 98 99 100 101 103 104 105
35 35 35 36 36 37 37 37 37 37 37 37 37 37 37 37 38 39 40 40 40 41 43 43 43 45 46 47 48 48 48 49 49 50 49 49 50 50 51 51 52 53 53 54 54 55 56 56 58 59 61 62 64 65 66 68 69 70 71 73 74 75 77 78 80 81 82 84 85 87 88 90 91 93 94 95 97 98 99 101 102 103 104 105 107 108
32 31 31 32 33 34 34 34 34 34 34 35 35 35 36 37 37 38 39 40 41 43 44 45 46 47 47 48 48 47 47 47 47 48 48 49 50 50 51 52 52 53 53 54 55 56 57 59 60 62 64 66 67 68 69 70 71 73 74 75 77 78 80 81 82 84 85 87 88 90 91 93 94 96 97 98 100 101 102 103 105 106 107 109 110 111
33 31 29 30 32 32 32 33 33 33 34 34 34 35 36 37 37 38 40 42 44 45 47 47 47 47 47 46 46 46 46 46 46 47 48 49 49 50 50 51 52 53 54 55 57 58 60 62 63 65 66 67 69 70 71 73 74 76 77 78 80 82 83 84 86 87 88 90 91 93 94 96 97 98 100 101 102 104 105 107 108 110 111 112 113 113
32 32 29 29 32 33 32 33 33 33 34 34 35 36 37 38 39 40 41 43 44 46 47 47 47 46 45 45 44 45 45 46 46 47 48 48 49 49 50 52 53 55 56 58 59 61 62 64 65 67 68 69 70 72 73 75 77 78 80 81 83 84 86 87 88 90 91 93 94 96 97 99 100 102 103 104 106 108 109 111 112 112 112 112 111 110
32 33 31 31 33 34 34 35 35 35 35 36 37 38 38 40 41 41 42 42 43 44 45 46 46 45 44 43 44 44 45 45 46 46 48 49 50 51 52 54 55 57 58 60 61 63 64 66 67 68 70 71 73 74 76 78 79 80 82 83 85 86 88 89 91 92 94 95 97 99 100 102 104 105 107 108 110 111 111 111 111 110 108 106 104 102
33 34 34 34 35 36 36 36 37 37 37 37 38 38 39 39 40 41 41 40 41 42 42 44 45 44 42 42 42 43 44 45 46 47 49 51 52 53 54 55 57 58 60 61 63 65 66 68 69 70 72 74 75 77 78 80 81 83 84 86 87 89 91 92 94 95 97 98 100 102 104 105 107 108 109 109 109 108 106 105 103 101 99 96 94 92
36 36 36 36 37 37 37 37 37 37 37 37 37 38 38 38 39 40 40 40 40 40 40 41 43 42 40 41 42 43 44 46 47 49 50 52 53 54 55 57 58 60 62 64 65 66 68 70 71 73 74 76 77 79 81 82 83 85 87 88 90 92 93 95 97 99 100 102 104 105 106 107 108 107 107 105 103 100 98 96 93 92 90 88 87 86
37 38 37 36 36 36 36 36 36 36 37 37 37 36 37 37 38 38 39 39 39 39 38 39 41 40 40 42 43 45 46 48 49 50 51 52 53 55 57 58 60 62 64 65 67 69 70 72 73 75 76 77 79 81 83 84 86 87 89 91 93 95 97 99 101 102 104 105 105 106 106 105 104 102 100 98 95 93 91 89 87 86 86 85 84 84
37 38 38 37 36 36 35 36 36 36 36 36 36 35 35 36 36 37 37 37 38 38 38 39 40 41 43 44 46 47 48 49 50 51 53 54 56 57 59 60 62 64 66 67 69 70 72 73 74 76 78 80 82 83 85 87 89 91 93 95 97 99 100 102 103 104 104 104 103 102 100 99 97 94 92 90 88 87 86 86 85 85 85 85 84 84
36 37 37 37 37 37 36 36 36 35 35 34 34 34 34 34 35 35 36 37 38 38 39 41 42 44 45 47 47 48 49 50 51 53 55 57 58 59 61 63 64 66 67 69 70 71 73 75 77 79 81 83 85 86 88 90 92 94 96 98 99 100 101 101 101 100 99 98 96 94 92 90 89 87 86 86 86 86 86 85 85 85 85 85 85 85
36 36 36 36 36 36 36 36 36 36 35 34 34 34 34 34 35 35 36 37 38 40 41 43 44 45 46 47 48 49 50 51 53 55 56 58 60 61 62 64 66 68 69 70 72 74 76 77 79 81 83 85 87 89 91 93 95 96 97 97 97 97 96 95 94 93 91 90 88 87 86 86 86 86 86 86 86 86 86 86 86 86 86 87 87 87
35 35 35 35 35 34 35 35 35 35 35 34 34 34 35 35 36 37 38 39 40 42 42 43 44 45 46 47 48 50 51 53 55 57 59 60 62 63 65 66 68 70 71 73 74 76 78 80 82 84 86 88 90 91 93 93 93 93 92 91 91 90 89 88 87 86 86 86 86 86 87 87 88 88 88 88 87 87 87 87 87 88 88 89 90 91
35 34 34 34 33 34 34 34 34 34 34 34 35 35 36 37 38 39 40 41 42 42 43 43 45 46 47 49 51 52 54 56 58 60 61 63 64 65 67 68 70 71 73 75 77 79 81 83 84 86 88 89 90 90 89 88 86 85 85 84 84 84 84 85 85 86 87 88 88 89 89 89 88 88 88 88 88 88 88 89 90 91 91 92 93 94
34 34 33 33 33 33 33 33 33 33 34 35 36 37 38 38 39 40 41 42 42 43 44 45 46 48 50 51 53 55 57 59 60 61 63 64 65 66 68 70 71 73 75 77 79 81 83 84 86 86 86 86 84 83 81 80 80 81 82 82 83 84 86 87 87 88 89 89 89 89 89 89 89 89 89 90 90 91 91 92 93 93 94 94 94 94
34 34 34 34 33 33 33 33 34 35 36 37 38 38 39 40 40 41 42 42 43 44 45 47 49 50 52 54 56 57 59 60 61 62 63 65 66 68 70 72 74 76 78 80 81 82 83 84 83 82 80 78 77 77 77 78 80 81 83 84 85 86 87 88 88 89 89 89 89 90 90 91 91 91 92 93 93 93 94 94 94 94 94 93 93 92
34 34 34 34 34 34 34 35 36 37 38 39 39 39 40 41 41 42 43 44 44 46 47 49 51 53 54 56 57 58 59 60 62 63 64 66 68 71 73 75 77 79 80 81 81 81 81 79 76 74 73 73 75 76 78 80 81 83 85 86 87 88 88 89 89 90 90 91 92 92 93 93 93 93 94 94 94 94 94 94 94 93 92 91 89 87
34 34 34 35 35 36 37 38 39 40 40 39 40 40 41 41 41 42 44 45 46 48 50 52 53 54 55 56 57 58 60 61 63 65 67 69 71 74 76 77 79 79 80 79 78 76 74 71 70 71 72 74 76 78 80 82 83 85 86 87 88 89 89 90 91 91 92 93 94 94 95 95 95 94 94 94 94 93 92 91 90 89 87 85 82 80
35 35 36 37 38 38 39 39 40 40 40 40 40 41 41 42 43 44 45 47 49 50 52 53 54 55 56 57 59 59 61 63 65 68 70 72 74 76 77 77 77 77 76 74 72 69 67 67 69 71 73 75 77 79 81 83 85 86 87 88 89 89 90 91 91 92 93 94 95 95 95 95 95 94 93 92 91 89 87 86 84 82 80 77 74 70
37 37 37 38 38 38 39 39 39 40 41 42 42 42 43 44 45 46 47 49 50 51 52 53 54 56 57 58 59 60 62 65 68 70 72 74 75 76 76 75 74 72 70 68 66 65 66 68 70 72 75 77 79 81 83 84 85 86 87 88 89 90 90 91 91 93 94 94 95 95 94 93 92 90 88 87 85 83 81 79 76 74 70 67 63 59
37 37 37 37 38 38 39 40 41 41 42 43 44 45 46 47 48 49 48 49 50 52 53 54 56 57 58 58 60 62 64 67 69 71 73 74 74 73 72 71 69 68 66 64 64 65 67 70 72 74 77 79 81 83 84 85 86 86 87 88 89 89 90 91 92 92 93 93 92 91 91 89 87 85 83 81 78 76 73 70 67 63 59 55 51 50
36 37 38 38 39 40 41 41 41 43 44 45 46 47 48 50 51 51 51 50 52 53 54 56 57 57 58 59 61 63 65 67 69 71 72 72 71 70 69 68 66 64 64 64 65 67 69 72 74 77 79 81 83 84 85 85 86 86 86 87 88 90 91 91 91 90 89 88 87 86 85 84 82 79 76 74 71 67 64 61 57 53 50 47 45 45
37 38 39 40 41 42 42 43 44 44 45 47 48 49 50 51 52 53 53 53 53 55 56 57 57 58 59 61 63 65 66 67 69 70 71 70 68 68 67 65 64 63 64 65 66 68 71 73 76 78 81 82 84 85 86 86 86 86 87 88 89 90 89 88 87 85 84 82 82 81 80 78 76 73 69 66 62 58 55 52 48 46 44 42 42 43
41 41 41 41 42 43 44 45 46 47 47 48 49 50 51 52 53 54 55 54 55 56 57 57 58 60 61 64 66 68 69 70 69 69 70 68 66 65 64 63 63 63 65 66 68 70 72 75 77 79 82 83 85 85 86 86 87 88 89 89 89 88 86 83 82 80 79 77 76 76 75 73 70 66 62 58 54 50 48 45 42 40 40 40 41 43
42 42 43 43 44 45 46 47 47 48 49 49 51 51 52 53 54 56 57 57 57 58 58 59 60 62 64 66 68 70 71 72 72 70 68 66 64 63 62 62 63 64 65 67 69 71 74 76 79 81 82 84 85 86 86 87 88 88 88 88 86 83 81 79 77 76 74 73 72 72 70 68 64 59 55 51 47 45 43 40 37 36 36 38 41 42
44 45 46 47 47 48 48 49 49 50 50 51 52 52 53 54 55 56 58 59 59 59 59 61 63 64 66 68 69 70 71 72 71 69 66 64 63 62 61 62 64 65 66 67 70 72 75 77 80 82 83 84 85 85 86 86 87 86 85 83 80 78 76 74 73 72 70 69 69 68 65 60 56 52 49 47 44 41 39 37 35 35 35 37 40 41
47 48 49 50 50 51 51 52 52 52 52 52 53 53 54 56 57 58 59 60 61 61 61 63 64 66 67 69 70 71 71 70 68 66 64 64 63 62 62 63 64 64 66 68 71 73 76 78 81 82 84 84 85 85 85 85 84 81 79 77 75 73 71 69 68 68 67 67 67 63 57 52 49 47 46 44 41 38 35 35 35 35 35 37 39 38
50 51 52 53 54 54 54 55 55 55 55 55 55 56 57 58 60 61 61 61 61 62 63 64 66 68 69 70 70 71 70 68 66 64 64 63 62 62 63 64 64 65 66 69 72 74 77 79 81 82 83 84 85 85 85 83 79 76 74 72 71 69 67 66 65 65 65 65 62 56 50 46 45 44 42 40 37 36 35 34 34 33 34 37 37 36
51 52 54 55 56 56 56 57 57 57 57 57 57 58 59 61 62 62 62 62 62 63 65 66 68 69 70 71 71 70 68 66 64 63 63 62 61 62 63 64 64 65 68 70 73 76 79 80 81 82 83 85 85 85 83 79 75 72 71 70 68 66 64 63 63 63 63 61 56 49 45 44 43 40 38 37 36 36 35 34 32 31 32 36 36 34
52 53 54 56 57 57 57 57 57 57 58 58 59 60 61 62 63 63 63 63 64 65 66 68 69 70 71 71 70 68 66 64 62 62 61 60 61 62 63 64 65 66 69 72 74 77 80 81 82 82 83 84 84 82 79 75 72 70 69 68 66 64 63 62 61 61 60 55 48 43 41 41 39 37 36 36 36 36 35 33 30 29 31 35 35 33
53 54 55 56 57 57 57 58 58 58 59 59 60 61 62 63 63 63 63 64 64 66 67 68 69 70 71 70 69 66 64 62 61 60 60 60 61 62 63 63 65 67 70 72 75 78 80 81 82 82 83 82 81 78 74 72 70 69 68 66 64 63 62 61 60 59 56 49 43 40 39 37 35 34 35 36 36 37 36 34 30 28 30 33 34 32
53 54 55 56 57 58 58 58 59 59 59 60 61 62 62 63 63 63 63 64 65 66 67 69 70 70 70 69 66 63 62 61 59 58 58 59 61 61 62 63 65 68 71 74 76 79 80 81 81 82 81 80 77 73 71 69 68 67 66 64 63 61 60 59 59 57 51 44 39 38 37 35 33 32 33 34 34 35 35 34 30 28 29 32 32 31
54 55 56 57 58 59 59 59 59 59 60 61 61 62 62 62 62 62 63 64 65 66 68 69 70 69 68 66 63 61 60 59 57 57 58 59 60 61 62 64 66 69 72 75 78 79 80 81 81 81 79 76 72 70 68 67 66 66 65 63 61 60 58 57 57 53 46 40 38 37 35 33 32 31 31 32 33 34 35 33 29 26 27 30 31 29
54 55 56 57 58 59 60 60 59 59 60 61 62 62 62 62 62 63 64 65 66 67 68 69 69 68 66 63 61 59 58 57 57 57 58 59 60 61 62 64 67 70 73 76 78 79 80 80 80 79 76 73 69 67 65 65 65 64 63 61 60 59 57 56 54 49 42 38 37 35 33 31 30 29 29 29 30 34 37 37 31 26 26 29 32 30
54 56 57 58 59 60 60 61 61 61 61 62 63 63 63 63 63 64 65 66 67 68 68 68 68 66 64 62 60 58 57 56 57 57 59 60 60 61 62 64 67 70 73 76 78 79 79 79 79 77 73 69 66 65 64 63 63 63 62 60 59 58 56 55 51 44 38 36 35 33 30 28 27 27 28 27 28 29 33 38 37 31 27 28 31 32
54 56 57 59 60 61 61 62 63 63 63 64 64 64 64 64 65 65 66 67 68 68 68 68 66 65 63 60 59 57 56 56 57 58 59 60 61 62 63 66 68 71 74 76 77 77 78 78 77 74 69 66 64 63 62 62 62 61 60 59 58 57 56 54 49 41 36 34 33 31 28 26 25 25 27 28 28 27 28 32 36 37 32 29 29 31
Wind_Direction
284 284 282 280 277 277 279 279 279 279 279 279 279 278 278 276 275 273 273 273 273 273 273 274 274 275 275 275 276 276 276 277 277 277 278 278 279 279 280 280 280 280 280 281 281 281 282 282 283 283 282 281 280 279 279 278 278 277 277 277 277 277 278 278 278 278 278 277 277 277 277 276 276 276 276 276 276 276 276 276 276 276 276 276 276 276
285 284 282 280 280 280 280 279 279 279 279 280 280 279 278 277 276 274 274 274 274 275 275 275 276 277 277 278 278 278 278 278 278 278 279 279 280 281 281 281 282 283 283 283 283 283 283 283 283 282 281 280 279 279 278 277 277 277 276 277 277 277 278 278 278 278 277 277 277 277 277 277 277 276 276 276 276 276 276 276 276 276 276 276 276 275
287 286 284 283 283 282 281 281 281 281 281 280 280 280 279 279 278 277 277 277 277 277 278 279 280 280 280 280 280 279 279 279 279 280 281 281 282 282 283 284 284 285 285 285 285 285 284 284 283 282 281 280 279 278 277 276 276 276 276 276 277 277 277 278 278 277 277 277 277 278 278 277 277 277 277 277 276 276 276 276 277 276 276 276 276 275
289 288 287 287 286 285 285 285 284 284 283 283 282 282 281 281 280 280 280 281 281 281 282 282 281 281 281 281 281 281 281 281 282 282 283 283 284 285 285 286 286 286 286 286 286 285 285 284 283 282 281 280 278 277 276 276 276 276 276 276 277 277 277 277 277 277 277 278 278 278 278 278 277 277 277 277 277 277 277 277 277 277 277 277 277 276
291 290 290 289 288 288 287 286 286 286 285 285 285 284 284 283 283 283 283 283 283 283 284 283 282 281 282 282 282 282 283 284 284 285 286 286 286 287 287 287 287 287 286 286 286 286 285 284 283 282 280 279 278 277 276 276 276 276 276 277 277 277 277 277 277 277 278 278 278 278 278 278 277 277 277 277 277 277 278 279 279 278 278 278 277 277
292 291 291 291 290 289 288 288 287 287 286 286 286 286 285 285 285 285 285 284 284 284 284 284 283 283 284 284 285 285 285 286 287 287 288 288 288 288 288 288 288 288 288 287 287 286 285 284 282 281 279 278 277 276 276 276 276 276 276 276 277 277 277 277 278 278 278 278 278 278 277 277 277 277 277 277 277 278 279 279 279 278 278 278 278 278
293 292 292 292 291 290 289 288 288 287 287 286 286 286 285 285 285 285 285 285 285 285 285 285 286 287 287 287 287 287 288 288 288 288 288 289 289 289 289 289 289 289 289 288 287 285 284 283 281 279 278 277 276 276 276 276 276 276 277 277 277 278 278 278 279 279 280 279 279 278 278 277 276 276 277 277 278 278 279 278 278 277 277 278 278 279
293 293 293 292 291 291 290 289 288 288 287 286 286 285 285 285 285 285 285 286 286 287 287 288 289 290 289 289 289 289 289 289 289 289 289 289 289 290 290 290 289 288 287 286 285 284 282 281 280 279 277 277 276 276 276 277 277 277 278 278 279 279 280 280 280 280 279 278 278 278 277 277 278 278 279 279 279 279 279 279 279 279 279 279 279 279
294 294 293 293 292 291 291 290 289 288 288 287 286 286 286 286 286 286 286 287 287 288 288 290 290 290 290 290 290 290 289 289 289 289 290 290 290 290 290 288 287 286 285 284 283 282 281 280 279 278 277 277 276 277 277 278 278 279 280 280 281 281 281 281 280 279 279 278 277 278 278 279 280 280 280 280 279 280 281 281 281 281 280 280 280 279
294 294 293 292 292 292 291 290 290 289 289 288 287 287 287 287 287 287 287 287 288 288 289 290 290 289 289 289 290 290 290 290 290 291 291 291 291 290 289 288 286 285 284 283 282 281 280 280 278 278 277 277 277 278 279 279 280 280 281 281 281 281 280 279 279 279 278 278 279 280 280 281 281 280 280 280 280 281 281 281 281 280 280 280 279 279
293 293 293 292 292 292 291 291 291 291 290 290 289 289 289 288 288 287 288 288 288 288 289 289 289 288 288 289 289 290 290 291 292 292 292 291 290 290 289 288 287 286 285 284 283 282 281 280 279 279 279 279 279 279 280 280 280 281 281 281 280 279 279 279 279 279 280 280 281 281 281 280 280 280 280 280 280 280 280 280 280 280 280 279 279 279
294 294 293 293 292 292 292 292 292 292 291 291 291 290 290 289 289 288 288 288 289 289 289 289 289 288 288 289 290 290 291 292 293 293 292 292 292 291 291 290 289 288 286 285 284 283 282 281 281 281 280 280 280 281 281 281 280 280 279 279 279 279 279 280 281 282 282 282 282 281 281 281 281 281 281 281 280 280 280 280 279 279 279 279 279 279
295 295 294 294 293 293 293 292 292 291 291 291 291 290 290 290 289 288 288 289 289 289 289 289 289 289 289 290 292 292 293 293 293 293 293 293 293 292 292 291 290 288 287 286 285 284 283 282 282 282 281 281 280 280 280 279 278 278 278 279 280 281 282 282 283 283 282 282 282 282 282 282 282 282 282 282 282 281 281 281 281 281 280 280 280 280
294 294 293 293 292 292 292 292 292 291 291 291 290 290 290 290 290 289 289 289 290 290 290 290 290 289 290 292 293 294 294 293 294 294 294 294 293 292 291 291 290 289 288 286 285 284 283 282 281 281 280 280 279 279 279 280 280 281 282 283 283 284 284 283 283 283 283 283 283 283 283 283 283 283 283 283 283 283 283 283 283 283 283 283 282 282
293 293 292 291 291 291 291 291 291 291 291 291 291 291 291 291 291 291 291 291 292 292 291 291 291 292 293 294 294 294 294 295 295 295 294 293 293 292 291 290 289 288 287 286 285 284 283 283 282 282 283 283 283 283 284 284 285 285 285 285 285 285 284 284 284 284 284 284 284 284 284 284 284 284 284 284 285 285 285 285 285 285 284 284 284 284
295 294 294 293 293 292 292 292 292 292 293 293 293 293 293 293 294 294 294 294 294 293 293 293 293 294 295 295 295 295 296 296 295 294 294 293 292 292 291 289 288 287 287 286 286 286 286 286 286 287 287 287 287 287 287 287 287 286 286 286 286 286 285 285 285 285 285 285 285 285 286 286 286 286 286 286 286 286 286 286 285 285 285 285 284 284
302 301 299 298 297 296 295 296 296 296 296 296 296 296 296 296 296 296 295 295 295 294 294 294 294 294 294 294 295 296 295 295 294 294 293 292 292 291 290 290 289 289 289 289 289 290 290 290 290 290 290 290 289 289 289 289 288 288 287 287 287 287 287 287 287 287 287 287 287 287 287 287 287 287 287 287 286 286 286 286 286 286 285 285 285 285
306 306 305 303 301 300 300 300 300 299 299 299 299 299 299 298 298 297 296 296 295 294 294 294 294 294 295 295 296 296 295 295 294 293 292 291 291 291 291 291 291 292 292 292 292 293 292 292 292 292 292 291 291 291 290 290 290 289 289 289 289 289 289 289 289 289 289 289 289 288 288 288 288 287 287 287 287 287 287 287 287 287 287 287 287 287
307 306 307 305 303 302 302 302 302 302 301 301 301 300 300 299 298 297 297 296 296 295 295 295 296 296 297 297 297 297 296 295 294 293 293 292 293 293 293 294 294 294 294 294 294 294 294 293 293 293 292 292 292 292 291 291 291 291 291 291 291 291 291 291 291 290 290 290 289 289 289 289 289 289 289 289 289 289 288 288 288 288 288 288 288 287
308 308 309 308 305 304 305 304 304 304 303 303 302 301 300 299 298 298 297 297 297 297 297 297 298 299 299 299 299 298 296 296 295 295 295 295 295 296 296 296 296 296 296 296 295 295 294 294 293 293 293 292 292 292 292 292 292 292 292 293 293 292 292 292 292 292 291 291 291 290 290 290 290 290 290 289 289 289 289 289 289 289 288 288 288 287
309 309 310 310 308 307 308 307 306 305 305 303 302 301 300 299 299 298 298 298 298 298 298 299 299 301 301 301 300 299 298 298 297 297 297 298 298 298 298 298 298 297 297 296 295 294 294 294 294 294 294 294 294 294 294 294 294 294 294 294 294 293 293 293 292 292 292 291 291 291 291 291 290 290 290 290 290 290 290 290 290 289 289 288 288 287
310 309 310 310 309 308 308 307 306 306 305 303 302 302 301 301 300 300 299 299 299 299 299 299 300 302 303 302 301 300 299 299 299 299 299 299 299 299 299 298 297 296 295 295 295 295 295 295 295 295 295 295 296 296 296 296 295 295 295 295 294 294 293 293 293 293 292 292 292 292 292 292 292 292 292 292 292 292 291 291 290 290 289 288 287 287
311 310 311 311 310 309 309 308 308 307 306 305 304 304 303 303 302 302 301 302 301 302 302 301 301 303 303 301 300 300 299 299 299 299 299 299 299 298 298 297 297 297 297 297 297 297 296 297 297 297 297 297 297 297 297 296 296 296 295 295 295 295 294 294 294 294 293 293 293 293 293 293 293 293 293 292 292 291 291 290 289 289 288 288 287 286
312 311 311 312 311 311 311 310 309 308 307 307 307 306 306 305 305 304 304 304 304 304 304 302 302 303 302 300 300 300 300 300 300 300 300 299 299 299 299 299 299 298 298 298 298 298 298 299 299 299 298 298 297 297 297 297 297 297 296 296 296 295 295 295 294 294 294 294 294 294 294 294 294 293 293 292 292 291 291 290 289 289 288 288 287 286
314 314 314 313 313 313 312 311 310 309 309 309 309 309 308 307 307 306 306 306 305 305 304 303 303 304 303 302 303 302 302 302 302 302 301 300 300 300 300 300 300 299 299 299 299 300 299 299 299 298 298 298 298 297 297 297 297 297 297 297 296 296 296 295 295 295 295 296 295 295 295 295 294 294 293 293 292 292 291 291 290 290 289 288 288 287
316 316 315 315 315 315 314 313 312 312 312 312 311 311 310 309 308 308 307 307 306 306 306 306 306 306 305 305 305 304 304 304 304 303 303 302 302 302 302 301 301 300 300 300 300 299 299 299 299 299 299 299 299 299 299 299 298 298 298 297 297 297 297 297 298 298 297 297 297 296 296 295 295 295 294 294 294 293 293 292 291 291 290 289 288 287
318 317 317 317 317 317 316 316 315 315 315 314 314 313 312 311 310 309 309 308 308 308 308 308 307 307 307 306 306 306 305 305 304 304 303 303 303 302 302 301 301 301 301 300 300 300 300 301 301 301 300 300 300 300 300 299 299 299 299 299 300 300 300 300 300 299 299 298 298 298 297 297 297 296 296 295 295 294 293 293 292 291 290 289 289 288
319 319 319 319 318 318 318 318 317 317 317 316 315 314 313 313 312 311 310 310 310 310 310 309 309 308 307 307 307 306 305 305 304 303 303 302 302 302 302 302 302 302 302 302 302 302 302 302 302 302 301 301 301 301 301 301 301 301 302 302 302 302 302 302 301 301 300 300 300 299 299 298 298 297 297 296 295 295 294 293 293 292 291 290 290 289
321 321 321 321 320 320 320 320 319 318 318 317 316 315 315 315 314 313 313 313 313 313 312 311 310 309 308 308 307 306 306 305 305 304 304 304 304 304 304 304 304 303 303 303 303 303 303 303 303 302 302 302 302 302 303 304 304 304 304 304 304 304 304 303 303 302 301 301 301 300 299 299 298 298 297 297 296 295 295 294 293 293 292 292 291 291
324 323 323 323 323 322 322 321 321 320 320 319 318 317 317 317 316 316 316 316 316 315 313 312 311 310 310 309 308 307 307 307 306 306 306 306 306 306 305 305 305 305 305 305 304 304 304 304 304 304 304 304 305 305 306 306 306 306 306 306 305 305 304 304 303 303 302 302 301 300 300 299 299 298 298 297 297 296 296 295 294 294 293 293 293 292
326 326 326 325 325 325 324 323 323 322 321 321 320 319 319 318 318 318 318 317 316 315 313 312 311 310 309 309 309 308 308 308 308 308 308 308 308 307 307 307 306 306 306 306 305 305 305 305 305 306 306 307 307 308 308 308 308 308 307 307 307 306 305 305 304 303 303 303 302 301 301 300 300 299 299 298 298 297 297 296 296 295 295 294 294 293
330 329 329 329 328 328 327 326 325 324 323 322 322 321 321 321 321 320 319 317 316 314 312 311 310 310 309 309 309 309 309 309 309 309 309 310 309 309 309 308 308 307 307 306 306 306 306 307 307 308 309 309 310 310 310 310 310 309 309 308 308 307 306 306 305 305 304 304 303 303 302 301 301 300 300 299 299 298 298 297 297 297 296 295 295 294
333 333 333 333 331 330 328 327 326 325 324 324 323 323 323 322 321 319 317 316 314 313 312 311 311 311 311 311 311 311 311 312 312 312 312 312 311 311 310 309 309 308 308 307 307 308 308 309 310 311 311 311 312 312 312 312 311 311 310 310 309 308 308 307 307 306 306 305 304 304 303 302 302 301 300 300 300 299 299 298 298 297 297 296 296 295
337 336 336 334 332 330 329 328 327 326 325 325 325 324 322 320 319 317 316 315 315 314 314 314 314 313 313 313 314 314 314 314 315 315 314 314 313 312 311 310 309 309 308 308 309 310 311 312 313 313 313 314 314 314 313 313 313 312 311 310 310 309 308 308 308 307 306 306 305 304 304 303 302 302 302 301 301 300 300 299 298 298 297 297 297 296
339 337 336 334 332 331 330 329 329 329 328 327 325 323 321 320 318 318 318 318 317 316 316 316 315 315 315 316 316 317 317 317 317 317 316 315 314 312 311 310 310 310 310 311 312 313 314 314 315 315 315 315 315 315 315 314 313 312 312 311 310 310 309 309 308 308 307 306 306 305 305 304 304 303 303 303 302 302 301 300 300 299 299 299 298 297
341 339 338 337 335 335 334 333 332 330 328 326 324 323 322 320 319 319 320 319 318 317 317 317 317 317 317 318 318 319 319 319 319 317 316 315 314 313 312 312 312 313 313 314 315 316 316 317 317 317 317 317 316 316 315 315 314 313 313 312 311 311 310 310 309 308 308 308 307 307 306 306 305 305 305 305 304 304 303 302 302 301 301 300 300 298
345 343 342 340 338 337 336 333 331 329 328 326 325 324 323 322 321 321 322 322 321 320 320 319 319 319 319 319 320 320 320 320 319 318 317 317 316 315 314 315 315 316 316 317 317 318 318 318 319 318 318 318 317 317 316 316 315 315 314 313 312 311 311 311 311 310 310 310 309 309 308 308 308 308 308 307 307 306 305 304 304 304 304 303 301 299
349 347 344 341 339 337 334 333 331 330 329 328 327 326 325 325 324 324 325 325 324 322 321 321 320 321 321 321 321 321 321 321 321 319 319 319 317 316 316 316 317 317 318 318 319 319 320 320 320 319 319 318 318 318 317 317 316 316 315 314 314 313 313 313 313 312 312 312 311 311 310 310 311 311 310 310 309 309 308 307 307 307 306 305 304 301
351 348 345 342 339 336 335 334 333 332 331 330 329 328 328 328 327 326 326 326 325 324 323 323 322 322 322 322 323 323 322 323 323 321 320 319 318 317 317 318 318 318 319 320 320 321 321 321 320 320 320 319 319 319 319 318 318 317 317 316 316 316 316 316 315 315 315 314 314 314 314 314 314 314 313 313 312 311 310 310 310 309 309 309 307 305
349 346 344 341 340 338 337 336 335 334 333 333 332 331 331 330 329 328 327 327 327 326 325 324 324 324 325 324 325 324 324 324 324 323 321 320 319 319 319 319 319 320 320 321 322 322 322 322 321 321 321 321 321 320 320 320 320 319 318 318 318 318 318 318 318 318 318 318 317 317 317 317 316 316 316 315 314 314 313 312 312 313 314 312 309 307
348 345 344 342 341 340 338 337 337 336 335 334 334 333 332 331 330 329 329 328 328 327 326 326 326 326 326 326 326 325 325 324 324 323 322 321 321 320 321 321 321 321 321 322 323 323 323 322 322 322 322 322 322 321 321 321 321 320 320 320 320 320 321 321 321 321 320 320 320 320 319 319 318 318 317 316 316 316 315 315 317 319 319 314 309 309
347 346 344 343 342 340 339 339 338 338 337 336 336 335 333 332 331 331 330 329 328 328 327 327 327 327 327 326 326 325 325 325 324 324 323 322 322 322 322 322 322 322 323 323 323 323 323 324 324 324 323 323 323 322 322 322 322 322 321 321 322 322 323 323 323 323 322 322 322 322 321 320 320 319 318 317 318 318 318 320 322 324 320 314 311 314
347 345 344 343 342 341 341 340 340 339 339 338 337 335 334 333 332 331 331 330 329 328 328 328 328 327 327 327 326 326 326 326 325 324 323 323 323 323 324 323 323 323 324 324 324 324 325 325 325 325 324 324 324 324 324 324 324 323 323 323 324 325 325 325 324 324 324 324 324 323 323 321 320 320 319 319 320 320 321 324 326 326 321 315 315 321
347 346 345 343 342 342 342 341 341 340 340 338 337 336 335 334 333 332 331 330 329 329 329 329 328 328 327 327 327 327 326 326 325 324 324 324 324 325 325 325 325 325 325 325 326 326 327 327 327 326 326 325 325 326 325 325 326 326 326 326 326 327 327 326 326 325 325 325 325 324 323 323 322 322 322 323 324 323 323 326 329 329 324 319 320 326
347 346 345 343 342 343 342 341 341 340 339 339 338 336 335 334 333 332 331 331 330 330 329 329 329 328 328 327 327 327 327 327 326 325 325 325 326 326 326 326 326 326 326 327 327 328 328 328 328 327 327 327 327 327 327 327 328 328 328 328 328 328 328 328 327 326 326 327 326 325 325 325 325 326 326 326 326 324 324 328 333 333 327 323 324 330
347 346 344 343 343 342 342 342 341 341 340 339 338 337 335 334 333 333 332 331 331 330 330 330 329 328 328 328 328 329 328 328 328 327 327 327 327 328 327 327 327 327 327 328 329 329 329 329 329 329 329 328 328 328 328 329 329 329 329 329 329 330 330 329 329 328 328 328 328 328 328 328 329 329 327 326 326 325 325 330 337 337 331 326 328 334
347 345 345 344 343 343 343 342 342 341 340 339 338 337 335 334 333 333 332 331 331 332 331 330 330 329 329 329 330 330 330 330 329 329 328 329 329 329 328 328 328 328 329 330 330 330 330 330 330 330 330 330 329 330 330 331 331 330 330 331 331 331 331 331 330 330 330 330 330 331 331 331 331 330 328 327 327 326 326 331 339 342 335 331 332 337
346 345 345 345 343 343 343 343 342 342 340 339 338 337 335 335 334 333 333 333 333 333 332 332 331 331 331 331 332 332 332 331 330 330 330 331 331 330 330 330 330 330 331 331 331 331 332 332 332 331 331 331 331 331 332 332 332 331 332 332 332 333 333 333 332 332 332 332 333 334 334 333 332 331 330 330 331 330 328 331 339 346 342 336 335 338
346 345 345 345 344 343 343 343 342 342 341 339 338 337 336 336 335 335 335 335 335 334 334 333 333 333 333 333 333 333 333 333 332 333 333 332 332 332 331 331 331 332 332 333 333 333 333 333 333 333 333 333 333 334 334 334 333 333 333 333 334 334 335 335 334 334 335 335 336 336 335 334 332 332 332 335 337 336 333 332 338 350 353 345 341 341
346 346 345 345 344 343 343 343 343 342 342 340 340 339 338 337 337 337 336 336 336 336 336 335 335 335 335 335 335 335 335 335 335 334 334 334 334 333 332 333 333 334 334 334 334 335 335 334 334 334 334 335 335 335 335 335 335 335 335 335 336 336 337 337 337 337 337 337 337 337 336 334 334 334 335 339 342 343 340 336 336 344 354 354 347 345
346 346 345 345 344 344 344 344 343 343 342 341 341 340 339 338 338 338 338 338 338 338 337 337 337 337 337 336 336 336 336 336 336 335 335 335 335 334 334 335 335 335 335 335 336 336 336 335 335 336 336 336 336 336 337 337 337 337 336 337 338 338 339 339 339 339 340 340 339 338 337 337 338 340 341 342 344 346 346 342 337 337 345 354 354 350
Height
5738 5737 5736 5734 5732 5731 5730 5729 5728 5727 5726 5724 5724 5723 5722 5721 5719 5716 5714 5712 5711 5710 5709 5708 5706 5703 5702 5701 5700 5699 5697 5696 5694 5693 5691 5690 5689 5688 5686 5683 5681 5679 5677 5675 5673 5671 5669 5668 5667 5665 5663 5661 5658 5655 5653 5652 5649 5647 5645 5643 5641 5639 5637 5635 5633 5631 5630 5628 5626 5624 5622 5620 5618 5616 5614 5612 5611 5609 5608 5605 5604 5602 5600 5599 5597 5596
5735 5734 5733 5731 5729 5728 5727 5725 5724 5723 5721 5720 5719 5718 5717 5716 5714 5712 5709 5708 5707 5706 5704 5703 5701 5698 5697 5696 5695 5693 5692 5691 5689 5688 5687 5686 5685 5683 5680 5677 5675 5673 5671 5669 5667 5665 5663 5662 5661 5658 5656 5654 5652 5649 5647 5645 5643 5640 5638 5636 5634 5632 5630 5628 5626 5624 5622 5620 5619 5617 5615 5613 5610 5608 5607 5605 5603 5601 5600 5597 5596 5594 5592 5591 5589 5587
5732 5731 5729 5727 5726 5725 5723 5721 5720 5719 5717 5716 5715 5714 5713 5712 5709 5707 5705 5703 5703 5701 5699 5698 5696 5693 5692 5691 5690 5688 5687 5686 5685 5684 5682 5681 5679 5677 5674 5671 5670 5667 5664 5662 5660 5658 5657 5655 5654 5651 5649 5648 5645 5643 5640 5638 5636 5634 5631 5629 5627 5625 5623 5621 5619 5617 5615 5613 5611 5609 5607 5605 5603 5600 5598 5597 5595 5593 5591 5589 5587 5585 5583 5582 5580 5578
5728 5727 5725 5724 5723 5721 5719 5718 5716 5715 5714 5712 5711 5710 5709 5707 5705 5703 5701 5699 5698 5696 5695 5694 5690 5688 5687 5686 5684 5683 5681 5680 5680 5679 5677 5675 5673 5671 5668 5666 5664 5661 5658 5656 5654 5651 5650 5648 5647 5645 5642 5641 5638 5636 5634 5631 5629 5626 5624 5622 5620 5617 5615 5613 5611 5609 5607 5605 5603 5601 5599 5597 5594 5592 5590 5588 5586 5584 5583 5581 5579 5576 5574 5572 5571 5569
5725 5724 5722 5720 5719 5718 5716 5714 5713 5711 5710 5708 5707 5706 5704 5703 5701 5698 5696 5694 5693 5691 5691 5688 5684 5682 5682 5680 5679 5677 5676 5675 5674 5673 5671 5669 5667 5665 5662 5660 5657 5655 5652 5650 5647 5645 5643 5641 5640 5638 5635 5633 5631 5629 5627 5624 5622 5619 5617 5615 5612 5610 5608 5605 5603 5601 5599 5597 5595 5593 5590 5588 5585 5583 5581 5579 5577 5575 5574 5572 5570 5567 5565 5563 5561 5559
5722 5720 5719 5717 5715 5714 5712 5711 5709 5708 5706 5705 5703 5702 5700 5698 5696 5694 5692 5690 5688 5686 5686 5683 5678 5676 5676 5675 5673 5672 5671 5669 5668 5667 5665 5662 5660 5658 5656 5653 5651 5648 5646 5643 5641 5639 5637 5635 5633 5631 5628 5626 5624 5622 5619 5617 5614 5612 5609 5607 5605 5603 5600 5598 5596 5593 5591 5589 5587 5584 5582 5579 5577 5575 5572 5570 5568 5567 5565 5563 5561 5559 5556 5553 5552 5550
5719 5717 5716 5714 5712 5711 5709 5707 5705 5704 5702 5701 5699 5697 5696 5694 5692 5690 5687 5685 5683 5682 5680 5678 5674 5671 5670 5669 5667 5667 5666 5664 5661 5660 5659 5656 5654 5651 5649 5647 5644 5641 5639 5637 5634 5632 5630 5628 5626 5623 5621 5619 5616 5614 5612 5609 5607 5604 5602 5600 5598 5595 5592 5590 5587 5585 5583 5580 5578 5575 5572 5569 5567 5566 5564 5561 5559 5557 5556 5554 5552 5550 5548 5545 5543 5540
5716 5714 5712 5711 5709 5707 5705 5704 5702 5700 5699 5697 5695 5693 5691 5690 5688 5686 5683 5681 5678 5676 5675 5673 5669 5665 5663 5663 5661 5660 5660 5658 5656 5654 5653 5651 5648 5645 5643 5641 5638 5635 5632 5630 5628 5625 5623 5621 5618 5616 5613 5611 5609 5606 5604 5602 5599 5597 5594 5591 5589 5587 5584 5581 5579 5576 5573 5571 5568 5565 5562 5560 5557 5555 5554 5552 5550 5547 5545 5544 5542 5540 5538 5536 5533 5531
5712 5711 5709 5707 5705 5703 5702 5700 5698 5696 5694 5693 5691 5689 5687 5685 5683 5681 5679 5677 5674 5671 5670 5668 5664 5660 5657 5656 5655 5654 5653 5652 5650 5648 5646 5644 5642 5639 5636 5634 5631 5629 5626 5623 5621 5618 5616 5613 5611 5608 5606 5603 5601 5599 5596 5594 5592 5589 5586 5583 5581 5579 5576 5572 5570 5567 5564 5561 5557 5555 5552 5550 5548 5545 5543 5541 5539 5537 5534 5533 5531 5529 5527 5525 5522 5520
5709 5707 5705 5703 5702 5700 5698 5696 5694 5692 5690 5689 5687 5685 5683 5681 5679 5677 5674 5672 5669 5666 5665 5663 5659 5654 5651 5650 5649 5647 5646 5645 5643 5641 5639 5637 5635 5632 5630 5627 5625 5622 5619 5617 5614 5612 5609 5606 5604 5601 5599 5596 5594 5591 5589 5587 5585 5582 5579 5576 5572 5570 5567 5564 5560 5557 5554 5551 5548 5545 5543 5540 5538 5535 5533 5531 5529 5526 5523 5522 5520 5518 5516 5514 5511 5508
5706 5704 5702 5700 5698 5696 5694 5692 5690 5688 5686 5684 5682 5680 5678 5676 5674 5672 5669 5667 5663 5661 5660 5657 5654 5649 5645 5644 5643 5641 5640 5638 5636 5634 5632 5630 5627 5625 5623 5620 5618 5615 5613 5610 5608 5605 5603 5600 5597 5595 5592 5590 5587 5584 5582 5579 5577 5575 5571 5568 5564 5561 5558 5554 5551 5548 5545 5542 5539 5536 5533 5530 5527 5525 5523 5521 5518 5515 5513 5511 5509 5506 5504 5502 5498 5496
5702 5700 5698 5695 5693 5692 5690 5687 5685 5683 5681 5679 5677 5675 5673 5670 5668 5666 5664 5661 5657 5655 5654 5651 5648 5644 5639 5638 5637 5635 5634 5632 5630 5627 5625 5623 5621 5619 5617 5614 5611 5609 5606 5604 5601 5599 5596 5593 5590 5588 5585 5583 5580 5577 5574 5572 5569 5566 5563 5559 5555 5552 5548 5545 5542 5539 5536 5533 5529 5526 5522 5519 5517 5514 5511 5509 5506 5503 5501 5499 5497 5494 5492 5489 5486 5483
5697 5695 5693 5691 5689 5687 5685 5683 5681 5679 5677 5674 5672 5670 5667 5664 5662 5659 5658 5655 5652 5649 5647 5644 5641 5638 5634 5632 5631 5629 5628 5626 5624 5621 5619 5616 5614 5612 5610 5607 5604 5602 5599 5597 5594 5592 5589 5586 5584 5581 5578 5575 5572 5569 5566 5563 5560 5557 5554 5550 5546 5543 5540 5537 5533 5530 5526 5523 5519 5515 5512 5509 5505 5502 5499 5496 5493 5490 5487 5485 5483 5481 5478 5476 5473 5470
5694 5691 5689 5686 5684 5683 5680 5678 5676 5674 5671 5669 5667 5664 5662 5658 5655 5653 5651 5649 5646 5643 5641 5638 5635 5632 5630 5628 5626 5623 5622 5620 5618 5616 5613 5610 5608 5606 5604 5601 5597 5595 5592 5590 5587 5585 5582 5579 5576 5573 5570 5567 5564 5561 5558 5555 5552 5549 5545 5542 5538 5534 5531 5527 5524 5520 5517 5513 5509 5504 5501 5497 5493 5491 5487 5483 5480 5477 5473 5470 5468 5465 5462 5460 5457 5455
5689 5687 5684 5682 5680 5678 5676 5673 5671 5668 5666 5664 5661 5659 5656 5653 5650 5647 5645 5643 5641 5638 5635 5633 5629 5626 5625 5623 5621 5618 5616 5614 5612 5610 5607 5604 5601 5599 5597 5594 5590 5587 5585 5582 5580 5577 5574 5571 5568 5565 5562 5559 5556 5553 5550 5547 5544 5540 5536 5533 5529 5525 5521 5518 5514 5510 5506 5502 5498 5493 5489 5485 5481 5478 5475 5471 5466 5463 5460 5456 5453 5450 5446 5443 5440 5438
5684 5681 5679 5677 5675 5672 5670 5668 5666 5663 5661 5658 5656 5654 5651 5648 5645 5642 5640 5638 5635 5632 5630 5628 5625 5622 5620 5618 5615 5613 5611 5609 5606 5603 5601 5597 5594 5592 5589 5587 5583 5580 5578 5575 5572 5570 5567 5564 5560 5557 5554 5551 5548 5545 5541 5538 5534 5531 5527 5523 5520 5515 5511 5507 5503 5499 5495 5491 5486 5481 5477 5472 5468 5465 5461 5457 5453 5448 5445 5442 5438 5435 5432 5427 5424 5422
5679 5677 5674 5671 5669 5667 5665 5663 5661 5659 5656 5653 5651 5649 5646 5644 5641 5638 5635 5633 5630 5627 5625 5624 5621 5618 5616 5613 5611 5608 5606 5603 5600 5597 5594 5591 5588 5584 5582 5579 5576 5573 5571 5568 5565 5562 5559 5556 5553 5549 5546 5542 5539 5536 5532 5528 5524 5521 5517 5514 5509 5505 5500 5496 5492 5487 5483 5478 5474 5469 5464 5459 5455 5451 5447 5443 5439 5435 5431 5427 5423 5420 5417 5412 5407 5405
5674 5673 5671 5667 5665 5663 5661 5659 5656 5654 5652 5649 5647 5644 5642 5639 5637 5634 5630 5628 5625 5622 5620 5618 5616 5613 5611 5608 5606 5603 5600 5597 5594 5591 5588 5585 5581 5578 5575 5573 5570 5567 5564 5561 5558 5555 5552 5548 5544 5541 5537 5533 5530 5526 5522 5518 5514 5510 5506 5502 5498 5493 5488 5484 5480 5475 5470 5465 5461 5456 5451 5446 5441 5437 5433 5429 5424 5420 5416 5412 5407 5404 5401 5396 5391 5387
5670 5669 5668 5665 5661 5659 5657 5655 5653 5650 5648 5646 5643 5640 5638 5635 5632 5629 5626 5623 5620 5617 5614 5612 5610 5608 5606 5603 5600 5597 5594 5591 5588 5584 5581 5578 5576 5572 5569 5566 5563 5560 5557 5554 5551 5547 5544 5540 5536 5533 5529 5525 5521 5516 5512 5508 5503 5499 5495 5490 5485 5480 5475 5471 5466 5462 5457 5451 5446 5442 5437 5432 5427 5422 5418 5414 5409 5404 5400 5395 5391 5387 5383 5379 5374 5369
5667 5665 5664 5662 5658 5656 5654 5652 5649 5647 5644 5642 5639 5636 5633 5631 5628 5625 5622 5618 5615 5612 5608 5606 5605 5603 5601 5598 5595 5591 5588 5585 5581 5578 5575 5572 5569 5566 5563 5560 5557 5554 5550 5547 5543 5540 5536 5532 5528 5524 5520 5516 5512 5507 5502 5497 5493 5488 5484 5479 5473 5468 5463 5458 5453 5448 5443 5437 5431 5427 5422 5417 5412 5407 5402 5398 5393 5388 5383 5378 5374 5369 5365 5361 5356 5351
5664 5662 5660 5658 5654 5652 5650 5647 5645 5643 5640 5637 5635 5632 5629 5626 5623 5620 5618 5615 5611 5607 5604 5601 5599 5598 5595 5592 5589 5585 5582 5579 5575 5572 5569 5566 5563 5561 5558 5554 5550 5547 5543 5539 5536 5532 5528 5524 5520 5515 5511 5507 5502 5497 5491 5486 5481 5477 5472 5467 5461 5456 5451 5446 5440 5435 5430 5424 5418 5413 5408 5402 5397 5392 5386 5381 5376 5370 5365 5360 5355 5351 5347 5344 5339 5333
5660 5658 5656 5654 5651 5649 5646 5644 5641 5638 5636 5633 5630 5627 5625 5622 5618 5615 5613 5611 5607 5604 5601 5597 5594 5593 5591 5587 5583 5580 5576 5573 5570 5567 5564 5561 5558 5555 5552 5548 5544 5541 5536 5532 5528 5524 5519 5515 5511 5506 5501 5496 5491 5486 5480 5475 5470 5466 5461 5455 5449 5443 5438 5433 5427 5422 5416 5410 5404 5398 5392 5386 5381 5375 5369 5364 5359 5353 5348 5343 5338 5333 5330 5327 5323 5318
5657 5654 5652 5650 5647 5645 5642 5640 5637 5634 5631 5629 5626 5623 5620 5617 5614 5611 5608 5606 5603 5600 5597 5593 5589 5589 5586 5582 5579 5576 5572 5569 5566 5563 5559 5556 5553 5550 5546 5541 5537 5533 5528 5524 5519 5515 5510 5505 5501 5496 5491 5486 5481 5475 5469 5464 5459 5454 5449 5443 5437 5431 5425 5418 5413 5407 5401 5395 5389 5382 5376 5370 5364 5358 5352 5347 5342 5338 5332 5327 5323 5319 5314 5311 5308 5304
5653 5651 5649 5647 5644 5641 5638 5636 5633 5630 5627 5625 5622 5619 5616 5613 5610 5607 5603 5601 5598 5596 5593 5589 5586 5584 5581 5578 5575 5572 5568 5565 5562 5558 5554 5550 5547 5543 5539 5534 5530 5525 5520 5515 5511 5506 5500 5495 5491 5486 5481 5476 5471 5465 5459 5454 5449 5443 5436 5430 5424 5417 5411 5404 5398 5392 5385 5379 5373 5367 5360 5354 5348 5342 5336 5331 5327 5322 5317 5313 5309 5304 5300 5297 5294 5290
5650 5647 5644 5642 5640 5638 5635 5632 5629 5626 5623 5621 5618 5615 5612 5609 5606 5603 5600 5597 5594 5592 5588 5585 5582 5579 5576 5573 5570 5566 5563 5559 5556 5552 5547 5543 5540 5536 5531 5526 5521 5517 5512 5507 5502 5497 5492 5487 5482 5477 5471 5466 5460 5454 5448 5442 5436 5430 5423 5416 5409 5403 5396 5388 5381 5375 5369 5362 5356 5351 5344 5338 5332 5327 5322 5317 5312 5307 5303 5299 5294 5290 5286 5282 5279 5276
5647 5644 5640 5638 5635 5633 5630 5627 5625 5622 5620 5617 5614 5611 5608 5605 5603 5599 5596 5593 5590 5587 5584 5581 5577 5575 5571 5568 5565 5561 5557 5554 5549 5545 5540 5535 5532 5528 5523 5518 5513 5508 5504 5499 5494 5489 5484 5478 5473 5467 5461 5454 5448 5441 5436 5430 5423 5417 5409 5402 5394 5387 5380 5373 5366 5359 5352 5346 5341 5335 5329 5323 5318 5313 5308 5303 5298 5293 5289 5284 5280 5276 5271 5267 5263 5261
5644 5641 5638 5635 5632 5629 5626 5623 5620 5618 5615 5613 5610 5608 5605 5602 5599 5596 5593 5590 5586 5583 5580 5577 5573 5570 5566 5563 5559 5555 5552 5548 5543 5539 5534 5529 5525 5521 5516 5511 5505 5500 5495 5490 5485 5480 5474 5468 5462 5456 5449 5442 5435 5429 5423 5416 5409 5402 5395 5388 5379 5372 5365 5358 5352 5345 5338 5332 5327 5321 5315 5310 5304 5299 5294 5289 5284 5279 5274 5270 5265 5261 5257 5252 5247 5245
5640 5637 5635 5632 5629 5626 5623 5620 5617 5614 5612 5609 5606 5604 5601 5599 5596 5593 5589 5586 5583 5579 5576 5573 5569 5566 5562 5558 5554 5550 5546 5542 5537 5533 5528 5523 5519 5514 5508 5503 5497 5492 5486 5481 5475 5470 5464 5458 5451 5445 5437 5430 5423 5416 5410 5403 5396 5388 5381 5374 5366 5359 5352 5345 5339 5332 5325 5319 5313 5308 5302 5296 5291 5285 5280 5274 5270 5265 5260 5255 5251 5246 5241 5236 5232 5228
5637 5634 5631 5629 5626 5623 5620 5617 5614 5611 5609 5606 5603 5601 5598 5595 5592 5589 5586 5582 5578 5575 5571 5568 5564 5560 5556 5553 5548 5544 5540 5536 5531 5526 5520 5516 5511 5505 5500 5494 5488 5483 5477 5472 5465 5459 5452 5446 5440 5433 5425 5417 5411 5404 5398 5391 5384 5377 5370 5363 5355 5348 5341 5334 5327 5320 5313 5307 5300 5294 5288 5283 5277 5271 5266 5260 5255 5251 5246 5240 5235 5230 5225 5220 5215 5211
5634 5631 5628 5626 5623 5620 5617 5614 5612 5609 5606 5603 5600 5597 5595 5592 5588 5585 5582 5578 5574 5570 5566 5562 5559 5554 5551 5547 5542 5538 5533 5529 5524 5518 5513 5508 5503 5497 5491 5486 5480 5474 5468 5462 5455 5448 5441 5434 5427 5420 5413 5406 5399 5393 5387 5380 5373 5366 5359 5352 5345 5337 5329 5322 5315 5308 5301 5294 5288 5281 5274 5269 5263 5257 5251 5246 5241 5235 5230 5225 5219 5214 5209 5203 5198 5194
5631 5628 5625 5623 5620 5617 5614 5612 5609 5606 5603 5600 5597 5594 5591 5588 5585 5581 5577 5574 5570 5566 5562 5558 5554 5550 5546 5541 5537 5531 5526 5522 5517 5511 5506 5500 5495 5489 5483 5476 5470 5464 5458 5451 5444 5437 5430 5423 5416 5409 5402 5395 5389 5383 5376 5370 5363 5356 5348 5340 5333 5326 5318 5309 5302 5295 5288 5280 5274 5267 5261 5254 5249 5243 5236 5230 5225 5219 5213 5208 5202 5196 5191 5186 5181 5177
5628 5625 5622 5620 5617 5615 5612 5609 5606 5603 5600 5597 5594 5590 5587 5584 5581 5577 5573 5570 5566 5562 5558 5554 5549 5545 5540 5536 5531 5525 5520 5514 5509 5504 5498 5493 5486 5479 5473 5466 5460 5453 5446 5439 5433 5426 5419 5412 5405 5399 5392 5386 5379 5373 5366 5360 5353 5345 5336 5328 5320 5312 5305 5296 5288 5281 5274 5266 5258 5252 5246 5239 5234 5228 5221 5215 5209 5203 5197 5191 5186 5180 5174 5170 5165 5160
5626 5623 5620 5618 5615 5612 5609 5606 5603 5600 5597 5594 5590 5587 5584 5580 5577 5574 5570 5566 5562 5557 5552 5548 5543 5538 5534 5529 5524 5519 5513 5507 5501 5495 5489 5483 5477 5469 5462 5455 5448 5442 5435 5428 5422 5416 5409 5402 5395 5388 5382 5376 5369 5362 5355 5348 5341 5333 5324 5316 5308 5299 5291 5284 5275 5267 5260 5252 5244 5237 5231 5225 5218 5213 5207 5200 5194 5188 5182 5176 5171 5165 5159 5155 5151 5145
5625 5622 5619 5616 5613 5609 5606 5603 5601 5597 5593 5590 5587 5583 5580 5577 5574 5571 5567 5562 5557 5551 5546 5542 5537 5532 5527 5521 5516 5511 5505 5498 5491 5485 5478 5472 5466 5459 5452 5445 5438 5432 5425 5418 5412 5406 5400 5394 5387 5379 5373 5366 5360 5352 5345 5337 5329 5322 5313 5304 5296 5288 5279 5272 5264 5255 5247 5239 5231 5223 5217 5210 5204 5198 5192 5186 5180 5174 5168 5162 5156 5151 5145 5141 5137 5132
5623 5620 5617 5614 5611 5607 5604 5600 5597 5594 5590 5586 5583 5580 5576 5573 5569 5566 5562 5557 5552 5546 5541 5536 5531 5525 5520 5514 5509 5503 5497 5490 5483 5476 5469 5462 5456 5448 5441 5435 5429 5422 5416 5409 5403 5397 5391 5385 5378 5371 5363 5357 5350 5343 5335 5328 5319 5312 5303 5293 5285 5277 5268 5261 5253 5243 5234 5226 5218 5210 5202 5196 5190 5184 5178 5172 5166 5160 5154 5148 5143 5138 5133 5129 5125 5120
5621 5618 5615 5612 5609 5605 5602 5597 5594 5590 5587 5583 5579 5576 5571 5568 5564 5560 5558 5553 5547 5541 5536 5530 5524 5519 5513 5508 5502 5496 5490 5483 5475 5467 5460 5453 5446 5438 5431 5425 5419 5413 5406 5400 5394 5388 5382 5375 5368 5361 5354 5346 5339 5332 5325 5318 5309 5301 5293 5283 5274 5265 5257 5249 5241 5231 5222 5213 5204 5196 5188 5180 5175 5170 5164 5158 5152 5147 5141 5135 5130 5126 5123 5119 5116 5111
5621 5617 5613 5610 5606 5602 5599 5595 5592 5588 5584 5579 5575 5571 5566 5562 5557 5553 5550 5547 5540 5534 5529 5524 5518 5512 5507 5501 5495 5489 5484 5477 5468 5459 5452 5445 5437 5429 5422 5416 5410 5404 5398 5392 5386 5380 5373 5366 5358 5351 5344 5336 5329 5321 5314 5306 5298 5290 5282 5272 5263 5254 5245 5237 5228 5218 5210 5201 5192 5183 5175 5167 5162 5157 5152 5146 5140 5135 5129 5124 5120 5116 5113 5111 5108 5104
5619 5615 5611 5607 5603 5599 5595 5592 5588 5585 5580 5575 5570 5566 5561 5556 5551 5546 5543 5539 5533 5528 5523 5517 5511 5506 5500 5494 5488 5482 5476 5471 5462 5451 5443 5438 5430 5422 5415 5409 5402 5397 5391 5385 5379 5372 5365 5357 5350 5342 5334 5326 5319 5310 5302 5294 5286 5278 5269 5260 5250 5241 5233 5224 5215 5206 5198 5189 5180 5172 5164 5157 5151 5145 5141 5136 5130 5125 5120 5116 5112 5109 5106 5103 5100 5097
5616 5612 5608 5605 5601 5597 5593 5589 5584 5579 5576 5571 5566 5561 5556 5550 5545 5540 5536 5533 5527 5521 5516 5510 5504 5499 5493 5486 5479 5472 5465 5461 5456 5446 5436 5430 5423 5415 5409 5402 5396 5389 5383 5376 5370 5364 5357 5349 5342 5334 5325 5316 5308 5299 5291 5283 5274 5265 5256 5246 5237 5228 5220 5211 5203 5195 5186 5178 5170 5162 5154 5147 5141 5136 5131 5127 5122 5118 5113 5110 5107 5104 5100 5097 5094 5090
5616 5612 5608 5604 5600 5595 5591 5586 5581 5576 5571 5567 5561 5556 5551 5545 5540 5534 5529 5526 5521 5515 5509 5504 5497 5491 5485 5478 5471 5463 5454 5448 5444 5438 5430 5423 5416 5409 5402 5396 5389 5383 5376 5370 5362 5355 5348 5340 5333 5325 5317 5308 5299 5290 5280 5271 5262 5253 5243 5234 5225 5216 5208 5200 5192 5184 5176 5168 5160 5153 5145 5138 5132 5128 5123 5119 5116 5112 5108 5105 5102 5099 5096 5092 5088 5084
5615 5610 5606 5602 5597 5592 5588 5583 5579 5573 5568 5563 5558 5552 5547 5541 5536 5530 5524 5519 5514 5509 5503 5497 5490 5484 5478 5471 5463 5457 5449 5440 5433 5428 5422 5415 5409 5403 5397 5390 5383 5376 5370 5363 5356 5349 5341 5333 5324 5315 5306 5298 5290 5282 5273 5264 5254 5244 5234 5224 5216 5208 5199 5191 5183 5176 5168 5160 5153 5146 5139 5131 5126 5121 5117 5113 5109 5106 5103 5100 5098 5095 5092 5088 5083 5079
5611 5607 5602 5598 5593 5589 5584 5579 5575 5570 5565 5559 5553 5548 5542 5536 5531 5526 5519 5513 5507 5502 5497 5491 5484 5478 5471 5465 5457 5450 5443 5435 5427 5421 5414 5408 5402 5396 5390 5384 5377 5371 5364 5357 5350 5342 5335 5326 5316 5306 5297 5288 5280 5272 5264 5256 5246 5236 5227 5218 5210 5202 5193 5185 5177 5169 5161 5154 5147 5140 5133 5127 5121 5117 5112 5108 5105 5102 5099 5096 5094 5091 5087 5082 5078 5075
5608 5603 5598 5594 5589 5584 5579 5574 5569 5564 5559 5554 5549 5543 5538 5532 5526 5520 5515 5508 5502 5496 5490 5484 5478 5471 5465 5458 5451 5443 5435 5428 5421 5414 5408 5401 5395 5389 5383 5377 5370 5364 5357 5350 5343 5335 5327 5318 5308 5298 5288 5279 5270 5261 5253 5246 5237 5228 5219 5211 5203 5196 5188 5180 5172 5164 5156 5148 5141 5135 5129 5124 5119 5114 5109 5105 5101 5098 5095 5093 5091 5088 5083 5078 5074 5071
5605 5600 5595 5590 5585 5580 5575 5569 5564 5559 5554 5549 5544 5538 5533 5527 5521 5515 5509 5503 5497 5491 5485 5478 5471 5464 5457 5451 5444 5437 5430 5423 5416 5409 5402 5396 5389 5383 5377 5370 5363 5357 5350 5343 5335 5327 5318 5309 5300 5291 5280 5269 5260 5251 5242 5235 5228 5220 5211 5204 5197 5190 5182 5175 5166 5159 5151 5144 5137 5131 5126 5120 5115 5110 5106 5102 5098 5095 5092 5090 5088 5085 5080 5074 5070 5068
5603 5598 5593 5588 5582 5577 5572 5567 5561 5556 5551 5546 5540 5534 5528 5522 5516 5510 5503 5497 5491 5485 5478 5472 5465 5457 5450 5444 5437 5431 5424 5417 5410 5403 5396 5390 5384 5378 5371 5364 5357 5351 5344 5336 5328 5319 5310 5301 5292 5283 5272 5261 5251 5243 5234 5226 5219 5212 5204 5197 5190 5183 5176 5169 5161 5153 5146 5140 5133 5128 5123 5117 5112 5107 5103 5099 5095 5092 5089 5087 5086 5082 5077 5072 5068 5064
5602 5597 5592 5587 5581 5575 5570 5564 5558 5553 5547 5542 5536 5530 5524 5518 5512 5506 5499 5493 5486 5480 5473 5466 5459 5451 5444 5437 5431 5424 5417 5411 5404 5397 5391 5385 5379 5372 5366 5359 5352 5345 5338 5330 5322 5313 5304 5295 5284 5275 5265 5255 5245 5236 5227 5219 5211 5204 5197 5191 5184 5177 5170 5163 5155 5148 5141 5135 5130 5125 5120 5115 5111 5106 5101 5097 5093 5089 5085 5083 5082 5079 5075 5070 5065 5061
5600 5595 5590 5584 5578 5572 5567 5561 5556 5550 5544 5538 5533 5526 5520 5514 5508 5502 5495 5489 5482 5475 5468 5460 5453 5445 5438 5431 5425 5418 5412 5405 5399 5393 5387 5380 5374 5368 5361 5354 5347 5339 5332 5324 5315 5307 5298 5288 5278 5268 5259 5249 5239 5230 5222 5214 5206 5198 5191 5185 5179 5172 5165 5157 5150 5143 5136 5131 5126 5122 5117 5112 5109 5105 5101 5096 5092 5088 5084 5081 5080 5077 5072 5068 5063 5060
5597 5592 5587 5581 5575 5569 5564 5558 5553 5547 5541 5535 5530 5524 5517 5510 5504 5498 5491 5484 5477 5470 5462 5454 5447 5439 5432 5426 5419 5413 5407 5401 5395 5389 5383 5376 5370 5363 5356 5349 5341 5334 5326 5317 5308 5299 5290 5281 5271 5261 5252 5243 5234 5225 5217 5209 5201 5193 5186 5180 5174 5167 5161 5153 5145 5138 5133 5128 5123 5119 5114 5110 5107 5104 5100 5095 5090 5086 5081 5079 5078 5076 5071 5066 5061 5058
5595 5589 5584 5579 5573 5567 5561 5556 5551 5546 5540 5533 5526 5520 5513 5506 5499 5493 5486 5479 5472 5464 5457 5449 5441 5434 5427 5420 5414 5408 5402 5396 5390 5384 5378 5372 5366 5359 5352 5344 5336 5328 5320 5311 5302 5292 5283 5273 5264 5255 5245 5236 5228 5220 5213 5205 5197 5189 5182 5176 5169 5163 5157 5150 5142 5135 5130 5125 5121 5117 5113 5109 5105 5102 5098 5095 5090 5084 5077 5073 5072 5073 5071 5065 5059 5055
5592 5587 5581 5576 5570 5564 5558 5552 5546 5541 5535 5528 5521 5515 5508 5501 5494 5488 5481 5473 5466 5459 5451 5444 5436 5428 5421 5415 5409 5404 5398 5391 5385 5379 5373 5367 5361 5354 5347 5340 5332 5323 5315 5306 5297 5287 5276 5267 5257 5248 5239 5231 5223 5215 5208 5201 5193 5185 5178 5171 5165 5158 5152 5146 5140 5133 5128 5123 5119 5115 5111 5108 5104 5101 5097 5094 5091 5087 5080 5072 5067 5067 5068 5065 5059 5053
5590 5584 5578 5572 5566 5560 5554 5547 5541 5534 5529 5523 5516 5510 5503 5496 5489 5483 5476 5468 5461 5454 5446 5438 5431 5424 5418 5411 5405 5399 5393 5387 5381 5375 5369 5362 5355 5348 5341 5334 5326 5318 5310 5301 5292 5282 5272 5262 5252 5243 5235 5227 5219 5212 5204 5197 5189 5182 5174 5167 5161 5154 5147 5141 5136 5130 5126 5122 5117 5113 5110 5106 5103 5100 5096 5093 5090 5087 5083 5077 5069 5063 5062 5063 5060 5054